Regional Weather Roundup
Issued by NWS

Home | Current Version | Previous Version | Text Only | Print | Product List | Glossary Off
Versions: 1 2 3 4 5 6 7 8 9 10 11 12 13 14 15 16 17 18 19 20 21 22 23 24 25 26 27 28 29 30 31 32 33 34 35 36 37 38 39 40 41 42 43 44 45 46 47 48 49 50

000
ASUS43 KMKX 180221
RWRWI

WISCONSIN REGIONAL WEATHER ROUNDUP
NATIONAL WEATHER SERVICE MILWAUKEE/SULLIVAN WI
900 PM CDT THU APR 17 2014

NOTE: "FAIR" INDICATES FEW OR NO CLOUDS BELOW 12,000 FEET WITH NO
SIGNIFICANT WEATHER AND/OR OBSTRUCTIONS TO VISIBILITY.

WIZ001-002-006>008-014>016-023>028-180300-
NORTHWEST WISCONSIN

CITY           SKY/WX    TMP DP  RH WIND       PRES   REMARKS
SUPERIOR ARPT  CLEAR     33  22  63 CALM      30.31R
ASHLAND        CLOUDY    33  26  75 NW3       30.31R
HAYWARD        CLOUDY    32  28  85 CALM      30.29R
SIREN          CLEAR     33  25  73 SE3       30.30R
RICE LAKE      PTCLDY    33  25  74 NE5       30.31R WCI  28
LADYSMITH      CLOUDY    35  28  75 CALM      30.30S
EAU CLAIRE     CLEAR     33  26  75 NE3       30.30R
MENOMONIE      PTCLDY    37  28  71 CALM      30.30R
NEW RICHMOND   CLEAR     32  27  81 CALM      30.31R
OSCEOLA        CLEAR     31  25  78 CALM      30.33R
$$

WIZ003>005-009-010-017-018-180300-
NORTH CENTRAL WISCONSIN

CITY           SKY/WX    TMP DP  RH WIND       PRES   REMARKS
WOODRUFF       CLOUDY    33  29  85 CALM      30.25S
RHINELANDER    CLOUDY    32  27  81 NW7       30.26R WCI  26
EAGLE RIVER    CLOUDY    32  25  76 NW5       30.25R WCI  27
LAND O LAKES   CLOUDY    32  29  88 NW5       30.25R WCI  27
PHILLIPS       CLOUDY    32  27  80 CALM      30.26R
TOMAHAWK       CLOUDY    32  27  80 CALM      30.27R
MEDFORD        CLOUDY    32  27  81 N5        30.27R WCI  27
MERRILL        CLOUDY    34  29  81 CALM      30.27R
$$

WIZ029-030-035-036-043>047-180300-
CENTRAL WISCONSIN

CITY           SKY/WX    TMP DP  RH WIND       PRES   REMARKS
WAUSAU         CLOUDY    36  28  73 N7        30.26R WCI  30
MOSINEE        CLOUDY    36  30  80 NW7       30.28R WCI  30
MARSHFIELD     CLOUDY    36  28  73 NW9       30.27R WCI  29
STEVENS POINT  CLOUDY    35  28  75 N7        30.28R WCI  29
WAUPACA        CLOUDY    41  32  70 NW6       30.28R
WAUTOMA        CLOUDY    41  32  70 NW8       30.28R
WISC RAPIDS    CLOUDY    38  30  73 NW3       30.29R
CAMP DOUGLAS   CLOUDY    38  31  74 NW6       30.29R WCI  34
$$

WIZ011>013-019>022-031-037>040-048>050-180300-
NORTHEAST WISCONSIN

CITY           SKY/WX    TMP DP  RH WIND       PRES   REMARKS
ANTIGO         CLOUDY    34  29  83 W8        30.26R WCI  27
STURGEON BAY   CLOUDY    39  32  75 CALM      30.26R
GREEN BAY      PTCLDY    42  34  73 NW7       30.26R
MANITOWOC      CLOUDY    45  38  76 E3        30.25R
APPLETON       PTCLDY    39  32  75 NW9       30.26R WCI  33
CLINTONVILLE   CLOUDY    39  32  75 NW8       30.26S WCI  34
OSHKOSH        PTCLDY    40  33  76 NW7       30.26R
$$

WIZ032>034-041-042-053>061-180300-
SOUTHWEST WISCONSIN

CITY           SKY/WX    TMP DP  RH WIND       PRES   REMARKS
LA CROSSE      CLOUDY    40  29  64 N7        30.30R
SPARTA         CLOUDY    39  29  67 NW5       30.30S
VIROQUA        CLOUDY    37  31  80 N7        30.27S WCI  31
BOSCOBEL       CLEAR     41  31  67 N7        30.29R
PRAIRIE DU CHI CLEAR     39  30  70 NW8       30.29R WCI  33
PLATTEVILLE    FAIR      42  33  70 NW6       30.26R
$$

WIZ056-057-062-063-064-067-068-180300-
SOUTH CENTRAL WISCONSIN

CITY           SKY/WX    TMP DP  RH WIND       PRES   REMARKS
BARABOO/DELLS  CLEAR     38  32  78 N3        30.27R
LONE ROCK      CLEAR     43  33  68 N9        30.27R
WATERTOWN      MOCLDY    44  36  73 N9        30.25R
MADISON        PTCLDY    42  34  73 N9        30.27R
MIDDLETON      FAIR      42  34  71 N8        30.26R
MONROE         MOCLDY    47  35  63 W10       30.24R
JANESVILLE     CLOUDY    50  36  57 W6        30.24R
$$

WIZ051-052-058>065-066-070>072-180300-
SOUTHEAST WISCONSIN

CITY           SKY/WX    TMP DP  RH WIND       PRES   REMARKS
MILWAUKEE      CLOUDY    48  37  65 S3        30.25R
WAUKESHA       NOT AVBL
MILWAUKEE/TIMM MOCLDY    50  36  57 CALM      30.24R
RACINE         CLOUDY    43  36  76 S3        30.26R
BURLINGTON     CLOUDY    46  37  72 CALM      30.24R
KENOSHA        MOCLDY    45  37  73 E7        30.24R
FOND DU LAC    PTCLDY    41  33  73 NW7       30.26R
SHEBOYGAN      CLOUDY    47  37  68 NW10      30.24R
WEST BEND      PTCLDY    45  34  65 NW5       30.24R
JUNEAU         PTCLDY    41  33  72 NW8       30.26R
$$

LSZ147-162-180300-
LAKE SUPERIOR

STATION/POSITION TIME  TEMP    WIND        PRES    WAVE
                       AIR SEA DIR/SP/G            HT/PER
                 (UTC) (F)     (DEG/KT/KT) (MB)    (FT/S)
DEVILS ISLAND    0200   34     300/ 11/ 12 1026.7R
PORT WING        0140   35     340/  5/ 12 1026.1R
SAXON HARBOR     0100             CALM     1025.1F
$$

LMZ867-665-643>646-180300-
LAKE MICHIGAN

STATION/POSITION TIME  TEMP    WIND        PRES    WAVE
                       AIR SEA DIR/SP/G            HT/PER
                 (UTC) (F)     (DEG/KT/KT) (MB)    (FT/S)
NORTHPORT PIER   0100   36     320/  1/  2 1024.0R
SISTER BAY       0109   38        CALM       N/A
KEWAUNEE LAKESHO 0100   42      10/  5/  6 1024.1R
SHEBOYGAN LAKESH 0200   44     350/ 10/ 11 1024.8R
PORT WASHINGTON  0100   51     260/  2/  3 1023.4R
MILWAUKEE LAKESH 0200   44     230/  2/  3   N/A
KENOSHA   LAKESH 0200   44     160/  3/  3   N/A
$$

TC  - TEMPERATURE IN CELSIUS
VSB - VISIBILITY IN STATUTE MILES
WCI - WIND CHILL INDEX
HX  - HEAT INDEX




USA.gov is the U.S. government's official web portal to all federal, state and local government web resources and services.